Location: Leuk
(46.3174°N, 7.6341°E)
Time: 16:17:47
(UTC+00:00)

Cosmos 1709 Rocket - Pass Details

Date: 09 March 2021
Orbit: 949 x 1001 km, 82.9° (Epoch: 16 April)

Event Time Altitude Azimuth Distance (km) Brightness Sun altitude
Rises 03:28:38 0° 351° (N) 3,732 7.2 -25.4°
Reaches altitude 10° 03:31:10 10° 351° (N) 2,782 6.5 -25.0°
Maximum altitude 03:37:35 88° 265° (W) 1,009 3.9 -24.0°
Drops below altitude 10° 03:43:57 10° 175° (S) 2,759 6.2 -22.9°
Sets 03:46:27 0° 175° (S) 3,701 6.9 -22.5°
